�������l�o���
Date,Time,MP-1(��Sv/h),MP-2(��Sv/h),MP-3(��Sv/h),MP-4(��Sv/h),MP-5(��Sv/h),MP-6(��Sv/h),MP-7(��Sv/h),MP-8(��Sv/h),����,����(m/s),���J
2024/05/13,00:00,0.507,0.779,0.489,0.974,0.704,0.314,0.553,0.517,��,8.9,��
2024/05/13,00:10,0.508,0.777,0.490,0.973,0.705,0.315,0.554,0.518,��,9.0,��
2024/05/13,00:20,0.508,0.775,0.489,0.974,0.704,0.315,0.552,0.517,��,9.9,��
2024/05/13,00:30,0.507,0.774,0.487,0.974,0.704,0.315,0.554,0.519,��,9.4,��
2024/05/13,00:40,0.507,0.776,0.487,0.973,0.703,0.312,0.553,0.517,��,9.1,��
2024/05/13,00:50,0.507,0.775,0.488,0.973,0.703,0.314,0.553,0.517,��,9.6,��
2024/05/13,01:00,0.507,0.776,0.488,0.972,0.701,0.314,0.552,0.518,��,10.2,��
2024/05/13,01:10,0.506,0.775,0.488,0.973,0.704,0.313,0.552,0.518,��,11.3,��
2024/05/13,01:20,0.507,0.776,0.487,0.972,0.702,0.315,0.552,0.517,��,10.6,��
2024/05/13,01:30,0.508,0.776,0.485,0.974,0.701,0.315,0.552,0.518,��,11.8,��
2024/05/13,01:40,0.509,0.776,0.487,0.974,0.703,0.313,0.553,0.517,��,11.9,��
2024/05/13,01:50,0.507,0.775,0.488,0.974,0.703,0.314,0.553,0.517,��쓌,12.8,��
2024/05/13,02:00,0.508,0.777,0.486,0.973,0.702,0.313,0.551,0.518,��쓌,11.1,��
2024/05/13,02:10,0.508,0.776,0.487,0.973,0.704,0.314,0.553,0.518,��,11.3,��
2024/05/13,02:20,0.508,0.775,0.486,0.972,0.702,0.313,0.554,0.517,��쓌,11.6,��
2024/05/13,02:30,0.508,0.774,0.486,0.974,0.703,0.314,0.553,0.517,��쓌,9.0,��
2024/05/13,02:40,0.508,0.776,0.488,0.974,0.703,0.314,0.553,0.518,��,7.6,��
2024/05/13,02:50,0.508,0.775,0.488,0.973,0.702,0.314,0.553,0.516,��,7.1,��
2024/05/13,03:00,0.508,0.773,0.487,0.975,0.702,0.314,0.554,0.517,��,7.7,��
2024/05/13,03:10,0.507,0.776,0.489,0.973,0.703,0.315,0.554,0.517,��,7.4,��
2024/05/13,03:20,0.509,0.776,0.487,0.972,0.702,0.315,0.553,0.517,��,8.6,��
2024/05/13,03:30,0.507,0.776,0.489,0.972,0.702,0.315,0.554,0.517,��,9.2,��
2024/05/13,03:40,0.509,0.777,0.486,0.973,0.702,0.315,0.554,0.518,��,9.7,��
2024/05/13,03:50,0.508,0.775,0.487,0.975,0.703,0.316,0.554,0.519,��,10.5,��
2024/05/13,04:00,0.510,0.778,0.489,0.975,0.702,0.315,0.555,0.518,��,9.7,�L
2024/05/13,04:10,0.507,0.777,0.487,0.973,0.703,0.316,0.555,0.517,��,9.4,�L
2024/05/13,04:20,0.508,0.777,0.490,0.973,0.705,0.315,0.555,0.519,��,8.4,�L
2024/05/13,04:30,0.510,0.778,0.491,0.976,0.703,0.315,0.555,0.518,��,8.5,�L
2024/05/13,04:40,0.510,0.778,0.491,0.976,0.706,0.317,0.554,0.517,��,9.0,�L
2024/05/13,04:50,0.509,0.779,0.489,0.973,0.703,0.316,0.554,0.517,��,8.2,�L
2024/05/13,05:00,0.508,0.776,0.487,0.974,0.701,0.315,0.554,0.515,��,7.4,�L
2024/05/13,05:10,0.507,0.774,0.490,0.975,0.703,0.315,0.554,0.516,��,6.8,�L
2024/05/13,05:20,0.507,0.774,0.489,0.973,0.702,0.316,0.552,0.514,��,8.4,�L
2024/05/13,05:30,0.507,0.773,0.488,0.973,0.702,0.316,0.552,0.516,��,8.2,�L
2024/05/13,05:40,0.507,0.774,0.487,0.971,0.702,0.314,0.552,0.514,��,7.0,�L
2024/05/13,05:50,0.506,0.774,0.488,0.973,0.701,0.316,0.554,0.515,��,5.3,�L
2024/05/13,06:00,0.507,0.774,0.486,0.974,0.701,0.314,0.553,0.515,��,5.3,�L
2024/05/13,06:10,0.505,0.771,0.487,0.972,0.699,0.314,0.552,0.516,��,6.6,�L
2024/05/13,06:20,0.504,0.767,0.486,0.974,0.698,0.314,0.552,0.514,��,8.9,�L
2024/05/13,06:30,0.505,0.769,0.485,0.969,0.697,0.314,0.551,0.514,��,9.5,�L
2024/05/13,06:40,0.501,0.767,0.485,0.968,0.694,0.312,0.548,0.510,��,10.3,�L
2024/05/13,06:50,0.498,0.761,0.481,0.966,0.690,0.313,0.550,0.511,��,12.7,�L
2024/05/13,07:00,0.497,0.759,0.479,0.964,0.690,0.312,0.548,0.510,��쓌,14.4,�L
2024/05/13,07:10,0.495,0.758,0.478,0.963,0.687,0.311,0.547,0.510,��,12.2,�L
2024/05/13,07:20,0.494,0.754,0.478,0.961,0.685,0.311,0.547,0.509,��,8.9,�L
2024/05/13,07:30,0.492,0.751,0.475,0.956,0.681,0.311,0.546,0.508,��,11.1,�L
2024/05/13,07:40,0.489,0.745,0.473,0.950,0.676,0.309,0.543,0.507,��,11.9,�L
2024/05/13,07:50,0.486,0.742,0.473,0.945,0.671,0.308,0.543,0.506,��쓌,13.5,�L
2024/05/13,08:00,0.485,0.737,0.471,0.938,0.667,0.307,0.541,0.504,��,11.6,�L
2024/05/13,08:10,0.482,0.732,0.470,0.928,0.663,0.306,0.539,0.503,��,8.1,�L
2024/05/13,08:20,0.478,0.729,0.467,0.921,0.659,0.302,0.537,0.501,��,10.6,�L
2024/05/13,08:30,0.478,0.728,0.467,0.916,0.657,0.303,0.535,0.499,��쓌,11.3,�L
2024/05/13,08:40,0.476,0.722,0.465,0.910,0.652,0.300,0.533,0.500,��,9.5,�L
2024/05/13,08:50,0.477,0.721,0.464,0.907,0.650,0.300,0.534,0.499,��,9.4,�L
2024/05/13,09:00,0.475,0.718,0.464,0.905,0.647,0.300,0.533,0.499,��,8.0,�L
2024/05/13,09:10,0.472,0.714,0.461,0.900,0.639,0.299,0.532,0.498,��쐼,8.2,�L
2024/05/13,09:20,0.474,0.713,0.463,0.895,0.642,0.299,0.530,0.498,��,10.2,�L
2024/05/13,09:30,0.473,0.719,0.464,0.901,0.643,0.300,0.533,0.499,��,9.2,�L
2024/05/13,09:40,0.478,0.720,0.464,0.903,0.645,0.302,0.532,0.500,��,10.5,�L
2024/05/13,09:50,0.477,0.723,0.464,0.904,0.645,0.302,0.534,0.502,��,10.6,�L
2024/05/13,10:00,0.481,0.725,0.466,0.908,0.650,0.304,0.535,0.500,��,10.3,�L
2024/05/13,10:10,0.483,0.726,0.467,0.911,0.651,0.303,0.536,0.503,��,12.7,�L
2024/05/13,10:20,0.482,0.727,0.468,0.910,0.653,0.306,0.536,0.502,��쐼,5.5,�L
2024/05/13,10:30,0.483,0.727,0.467,0.911,0.647,0.304,0.538,0.504,��,9.2,�L
2024/05/13,10:40,0.483,0.728,0.468,0.914,0.655,0.305,0.537,0.504,��,10.2,�L
2024/05/13,10:50,0.484,0.728,0.468,0.913,0.658,0.304,0.536,0.504,��,9.1,�L
2024/05/13,11:00,0.483,0.728,0.469,0.914,0.657,0.306,0.537,0.504,��쐼,8.7,�L
2024/05/13,11:10,0.483,0.728,0.468,0.914,0.657,0.306,0.537,0.504,��,7.5,�L
2024/05/13,11:20,0.484,0.729,0.468,0.914,0.657,0.305,0.537,0.502,��쐼,6.0,�L
2024/05/13,11:30,0.478,0.720,0.463,0.909,0.650,0.305,0.535,0.502,���k��,6.1,�L
2024/05/13,11:40,0.474,0.715,0.462,0.901,0.643,0.304,0.531,0.500,���k��,5.2,�L
2024/05/13,11:50,0.473,0.715,0.463,0.898,0.641,0.304,0.531,0.500,�k��,4.0,�L
2024/05/13,12:00,0.476,0.718,0.465,0.897,0.644,0.304,0.531,0.501,�k�k��,3.6,�L
2024/05/13,12:10,0.478,0.718,0.465,0.897,0.643,0.306,0.530,0.500,�k�k��,2.8,�L
2024/05/13,12:20,0.477,0.717,0.464,0.900,0.642,0.306,0.532,0.501,�k��,2.5,�L
2024/05/13,12:30,0.477,0.714,0.465,0.897,0.640,0.304,0.531,0.501,�k�k��,0.8,�L
2024/05/13,12:40,0.477,0.712,0.466,0.900,0.639,0.305,0.530,0.499,�k,1.5,�L
2024/05/13,12:50,0.476,0.715,0.465,0.899,0.639,0.303,0.531,0.501,���k��,0.6,�L
2024/05/13,13:00,0.475,0.716,0.466,0.898,0.636,0.304,0.529,0.501,�k��,2.6,�L
2024/05/13,13:10,0.475,0.714,0.465,0.896,0.637,0.305,0.528,0.498,�쓌,0.8,�L
2024/05/13,13:20,0.478,0.717,0.467,0.899,0.637,0.304,0.531,0.499,���쓌,0.6,�L
2024/05/13,13:30,0.478,0.717,0.465,0.900,0.640,0.305,0.530,0.501,���k��,2.6,�L
2024/05/13,13:40,0.478,0.718,0.466,0.900,0.640,0.306,0.531,0.502,�k��,3.8,�L
2024/05/13,13:50,0.479,0.719,0.467,0.901,0.640,0.306,0.531,0.502,�k�k��,4.7,�L
2024/05/13,14:00,0.479,0.719,0.465,0.900,0.639,0.305,0.531,0.502,-,CALM,�L
2024/05/13,14:10,0.477,0.718,0.467,0.899,0.638,0.305,0.530,0.501,-,CALM,�L
2024/05/13,14:20,0.476,0.715,0.466,0.897,0.634,0.305,0.530,0.500,�k�k��,2.2,�L
2024/05/13,14:30,0.476,0.717,0.465,0.896,0.635,0.304,0.530,0.500,-,CALM,�L
2024/05/13,14:40,0.477,0.716,0.466,0.898,0.634,0.304,0.529,0.499,-,CALM,�L
2024/05/13,14:50,0.478,0.716,0.466,0.895,0.636,0.305,0.528,0.498,���쓌,2.6,�L
2024/05/13,15:00,0.476,0.717,0.465,0.897,0.634,0.305,0.529,0.499,��쓌,3.5,�L
2024/05/13,15:10,0.478,0.718,0.464,0.896,0.637,0.303,0.529,0.498,��,1.5,�L
2024/05/13,15:20,0.477,0.716,0.466,0.896,0.636,0.304,0.528,0.500,�쐼,1.5,�L
2024/05/13,15:30,0.476,0.718,0.464,0.898,0.633,0.304,0.529,0.500,���쐼,2.0,�L
2024/05/13,15:40,0.474,0.715,0.464,0.896,0.634,0.304,0.528,0.499,�쐼,2.3,�L
2024/05/13,15:50,0.474,0.715,0.464,0.895,0.631,0.304,0.526,0.500,��쐼,3.0,�L
2024/05/13,16:00,0.473,0.715,0.462,0.893,0.631,0.304,0.527,0.498,��,2.6,�L
2024/05/13,16:10,0.475,0.715,0.462,0.892,0.633,0.304,0.528,0.500,��쐼,1.7,�L
2024/05/13,16:20,0.474,0.716,0.462,0.894,0.633,0.305,0.528,0.499,��,1.7,�L
2024/05/13,16:30,0.477,0.717,0.464,0.898,0.634,0.304,0.530,0.500,���k��,3.0,�L
2024/05/13,16:40,0.477,0.719,0.464,0.898,0.636,0.304,0.528,0.499,��,4.0,�L
2024/05/13,16:50,0.476,0.718,0.465,0.898,0.635,0.305,0.529,0.500,��,4.9,�L
2024/05/13,17:00,0.476,0.720,0.464,0.900,0.635,0.305,0.529,0.500,���k��,6.3,�L
2024/05/13,17:10,0.477,0.717,0.464,0.898,0.632,0.305,0.530,0.499,�k,5.6,�L
2024/05/13,17:20,0.477,0.719,0.465,0.895,0.634,0.308,0.528,0.500,�k,3.1,�L
2024/05/13,17:30,0.477,0.720,0.466,0.897,0.636,0.306,0.529,0.500,���k��,2.2,�L
2024/05/13,17:40,0.477,0.720,0.466,0.896,0.633,0.308,0.529,0.498,�k�k��,2.5,�L
2024/05/13,17:50,0.476,0.718,0.467,0.897,0.633,0.308,0.527,0.498,�k��,1.9,�L
2024/05/13,18:00,0.475,0.719,0.466,0.899,0.634,0.307,0.529,0.499,���k��,2.9,�L
2024/05/13,18:10,0.478,0.719,0.467,0.897,0.636,0.309,0.529,0.499,�k��,3.4,�L
2024/05/13,18:20,0.477,0.716,0.467,0.896,0.633,0.308,0.529,0.498,�k��,4.5,�L
2024/05/13,18:30,0.474,0.717,0.467,0.893,0.631,0.309,0.529,0.499,�k��,4.8,�L
2024/05/13,18:40,0.475,0.716,0.467,0.892,0.630,0.308,0.528,0.497,�k�k��,3.8,�L
2024/05/13,18:50,0.478,0.718,0.468,0.893,0.630,0.310,0.528,0.497,�k�k��,3.4,�L
2024/05/13,19:00,0.479,0.719,0.468,0.894,0.633,0.310,0.528,0.498,�k��,1.7,�L
2024/05/13,19:10,0.478,0.718,0.469,0.894,0.630,0.310,0.528,0.499,�k,5.0,�L
2024/05/13,19:20,0.479,0.717,0.469,0.892,0.631,0.309,0.530,0.497,�k,4.0,�L
2024/05/13,19:30,0.479,0.717,0.468,0.892,0.630,0.309,0.529,0.498,�k,7.0,�L
2024/05/13,19:40,0.477,0.717,0.468,0.895,0.630,0.309,0.528,0.499,�k,6.7,�L
2024/05/13,19:50,0.478,0.715,0.467,0.892,0.627,0.309,0.527,0.499,�k,5.2,�L
2024/05/13,20:00,0.478,0.717,0.467,0.892,0.630,0.308,0.529,0.500,�k,4.6,�L
2024/05/13,20:10,0.476,0.716,0.467,0.891,0.629,0.307,0.528,0.497,�k,4.7,�L
2024/05/13,20:20,0.480,0.717,0.467,0.892,0.629,0.308,0.527,0.498,�k,4.8,�L
2024/05/13,20:30,0.478,0.718,0.466,0.892,0.627,0.310,0.528,0.497,�k,5.7,�L
2024/05/13,20:40,0.478,0.716,0.467,0.893,0.627,0.309,0.526,0.497,�k,6.8,�L
2024/05/13,20:50,0.476,0.716,0.465,0.892,0.627,0.307,0.528,0.497,�k,6.3,�L
2024/05/13,21:00,0.477,0.715,0.465,0.890,0.628,0.308,0.527,0.498,�k�k��,6.0,�L
2024/05/13,21:10,0.477,0.716,0.466,0.891,0.629,0.310,0.528,0.498,�k�k��,6.2,�L
2024/05/13,21:20,0.478,0.717,0.467,0.891,0.628,0.309,0.529,0.498,�k�k��,5.4,�L
2024/05/13,21:30,0.478,0.720,0.468,0.895,0.629,0.309,0.530,0.500,�k,5.4,�L
2024/05/13,21:40,0.479,0.720,0.465,0.894,0.630,0.308,0.529,0.498,�k,5.1,�L
2024/05/13,21:50,0.478,0.720,0.467,0.893,0.631,0.307,0.532,0.497,�k,3.9,�L
2024/05/13,22:00,0.478,0.718,0.466,0.894,0.631,0.307,0.531,0.499,�k,4.9,�L
2024/05/13,22:10,0.479,0.721,0.465,0.893,0.631,0.307,0.530,0.499,�k�k��,5.1,�L
2024/05/13,22:20,0.479,0.721,0.465,0.897,0.629,0.307,0.530,0.498,�k�k��,5.3,�L
2024/05/13,22:30,0.479,0.721,0.464,0.895,0.632,0.306,0.531,0.499,�k,4.9,�L
2024/05/13,22:40,0.477,0.720,0.464,0.893,0.633,0.306,0.532,0.499,�k,5.6,�L
2024/05/13,22:50,0.477,0.722,0.464,0.896,0.630,0.305,0.528,0.500,�k�k��,5.2,�L
2024/05/13,23:00,0.477,0.723,0.462,0.894,0.633,0.304,0.529,0.500,�k�k��,5.8,��
2024/05/13,23:10,0.476,0.721,0.462,0.894,0.633,0.304,0.528,0.499,�k�k��,6.2,��
2024/05/13,23:20,0.477,0.723,0.462,0.897,0.633,0.304,0.530,0.500,�k�k��,6.2,��
2024/05/13,23:30,0.476,0.721,0.463,0.897,0.631,0.303,0.531,0.500,�k�k��,5.6,��
2024/05/13,23:40,0.476,0.722,0.461,0.895,0.632,0.303,0.532,0.499,�k��,5.5,��
2024/05/13,23:50,0.475,0.721,0.461,0.894,0.633,0.304,0.532,0.499,�k�k��,7.0,��
